Tracking 33195 objects as of 8-Feb-2026
HD Live streaming from Space Station
objects crossing your sky now

STARLINK-36148

Track STARLINK-36148 now!
10-day predictions


NORAD ID: 67005
Int'l Code: 2025-293C
Perigee: 574.2 km
Apogee: 579.1 km
Inclination: 70.0 °
Period: 96.1 minutes
Semi major axis: 6947 km
RCS: Unknown
Launch date: December 10, 2025
Source: United States (US)
Launch site: AIR FORCE WESTERN TEST RANGE (AFWTR)
Your satellite tracking list
Your tracking list is empty




NASA's NSSDC Master Catalog

Two Line Element Set (TLE):
1 67005U 25293C   26038.77691262  .00010378  00000-0  85791-3 0  9990
2 67005  70.0009 170.0224 0003517 271.8864  88.1893 14.99147992 10401
Source of the keplerian elements: AFSPC